Time,TemperatureF,DewpointF,PressureIn,WindDirection,WindDirectionDegrees,WindSpeedMPH,WindSpeedGustMPH,Humidity,HourlyPrecipIn,Conditions,Clouds,dailyrainin,SolarRadiationWatts/m^2,SoftwareType,DateUTC
2013-05-25 00:01:00,37.3,33.2,30.03,WSW,246,0.0,0.0,85,0.00,,---,0.00,0.00,VWS V14.01,2013-05-25 07:01:00,
2013-05-25 00:06:00,37.2,33.1,30.03,WSW,256,2.0,3.0,85,0.00,,---,0.00,0.00,VWS V14.01,2013-05-25 07:06:00,
2013-05-25 00:11:00,37.3,33.2,30.03,WSW,254,1.0,3.0,85,0.00,,---,0.00,0.00,VWS V14.01,2013-05-25 07:11:00,
2013-05-25 00:16:00,37.3,33.2,30.03,WSW,254,1.0,3.0,85,0.00,,---,0.00,0.00,VWS V14.01,2013-05-25 07:16:00,
2013-05-25 00:21:00,37.2,33.1,30.03,WSW,254,1.0,3.0,85,0.00,,---,0.00,0.00,VWS V14.01,2013-05-25 07:21:00,
2013-05-25 00:26:00,37.1,33.0,30.03,WSW,254,1.0,3.0,85,0.00,,---,0.00,0.00,VWS V14.01,2013-05-25 07:26:00,
2013-05-25 00:31:00,37.0,32.9,30.02,WSW,254,1.0,1.0,85,0.00,,---,0.00,0.00,VWS V14.01,2013-05-25 07:31:00,
2013-05-25 00:36:00,36.9,33.1,30.02,WSW,254,1.0,1.0,86,0.00,,---,0.00,0.00,VWS V14.01,2013-05-25 07:36:00,
2013-05-25 00:41:00,36.8,33.0,30.02,WSW,254,1.0,2.0,86,0.00,,---,0.00,0.00,VWS V14.01,2013-05-25 07:41:00,
2013-05-25 00:46:00,36.8,32.7,30.02,WSW,254,1.0,2.0,85,0.00,,---,0.00,0.00,VWS V14.01,2013-05-25 07:46:00,
2013-05-25 00:51:00,36.7,32.6,30.02,WSW,254,0.0,2.0,85,0.00,,---,0.00,0.00,VWS V14.01,2013-05-25 07:51:00,
2013-05-25 00:56:00,36.6,32.8,30.02,WSW,254,1.0,2.0,86,0.00,,---,0.00,0.00,VWS V14.01,2013-05-25 07:56:00,
2013-05-25 01:01:00,36.5,32.4,30.02,WSW,254,0.0,0.0,85,0.00,,---,0.00,0.00,VWS V14.01,2013-05-25 08:01:00,
2013-05-25 01:06:00,36.3,32.5,30.02,WSW,254,0.0,0.0,86,0.00,,---,0.00,0.00,VWS V14.01,2013-05-25 08:06:00,
2013-05-25 01:11:00,36.2,32.4,30.02,WSW,254,0.0,2.0,86,0.00,,---,0.00,0.00,VWS V14.01,2013-05-25 08:11:00,
2013-05-25 01:16:00,36.2,32.4,30.02,WSW,254,0.0,2.0,86,0.00,,---,0.00,0.00,VWS V14.01,2013-05-25 08:16:00,
2013-05-25 01:21:00,36.1,32.3,30.02,WSW,254,0.0,2.0,86,0.00,,---,0.00,0.00,VWS V14.01,2013-05-25 08:21:00,
2013-05-25 01:26:00,36.1,32.6,30.02,WSW,257,0.0,2.0,87,0.00,,---,0.00,0.00,VWS V14.01,2013-05-25 08:26:00,
2013-05-25 01:31:00,36.1,32.6,30.02,North,5,0.0,2.0,87,0.00,,---,0.00,0.00,VWS V14.01,2013-05-25 08:31:00,
2013-05-25 01:36:00,36.1,32.6,30.02,NW,314,0.0,3.0,87,0.00,,---,0.00,0.00,VWS V14.01,2013-05-25 08:36:00,
2013-05-25 01:41:00,36.1,32.6,30.02,NW,314,0.0,3.0,87,0.00,,---,0.00,0.00,VWS V14.01,2013-05-25 08:41:00,
2013-05-25 01:46:00,36.2,32.4,30.02,NW,314,1.0,3.0,86,0.00,,---,0.00,0.00,VWS V14.01,2013-05-25 08:46:00,
2013-05-25 01:51:00,36.2,32.7,30.02,WNW,300,1.0,3.0,87,0.00,,---,0.00,0.00,VWS V14.01,2013-05-25 08:51:00,
2013-05-25 01:56:00,36.2,32.7,30.02,NW,315,2.0,3.0,87,0.00,,---,0.00,0.00,VWS V14.01,2013-05-25 08:56:00,
2013-05-25 02:01:00,36.3,32.8,30.02,NW,308,2.0,2.0,87,0.00,,---,0.00,0.00,VWS V14.01,2013-05-25 09:01:00,
2013-05-25 02:06:00,36.3,32.8,30.02,NW,304,1.0,3.0,87,0.00,,---,0.00,0.00,VWS V14.01,2013-05-25 09:06:00,
2013-05-25 02:11:00,36.4,32.9,30.02,WNW,283,3.0,3.0,87,0.00,,---,0.00,0.00,VWS V14.01,2013-05-25 09:11:00,
2013-05-25 02:16:00,36.4,32.9,30.02,WNW,298,1.0,3.0,87,0.00,,---,0.00,0.00,VWS V14.01,2013-05-25 09:16:00,
2013-05-25 02:21:00,36.4,32.6,30.03,WNW,296,3.0,3.0,86,0.00,,---,0.00,0.00,VWS V14.01,2013-05-25 09:21:00,
2013-05-25 02:26:00,36.2,32.4,30.03,West,281,0.0,3.0,86,0.00,,---,0.00,0.00,VWS V14.01,2013-05-25 09:26:00,
2013-05-25 02:31:00,36.1,32.3,30.03,NW,308,1.0,1.0,86,0.00,,---,0.00,0.00,VWS V14.01,2013-05-25 09:31:00,
2013-05-25 02:36:00,36.0,32.2,30.02,NNE,17,2.0,2.0,86,0.00,,---,0.00,0.00,VWS V14.01,2013-05-25 09:36:00,
2013-05-25 02:41:00,35.9,32.1,30.02,WNW,300,1.0,2.0,86,0.00,,---,0.00,0.00,VWS V14.01,2013-05-25 09:41:00,
2013-05-25 02:46:00,35.8,32.3,30.03,WNW,300,0.0,2.0,87,0.00,,---,0.00,0.00,VWS V14.01,2013-05-25 09:46:00,
2013-05-25 02:51:00,35.7,32.2,30.03,North,360,0.0,3.0,87,0.00,,---,0.00,0.00,VWS V14.01,2013-05-25 09:51:00,
2013-05-25 02:56:00,35.8,32.3,30.03,NNE,13,0.0,3.0,87,0.00,,---,0.00,0.00,VWS V14.01,2013-05-25 09:56:00,
2013-05-25 03:01:00,35.9,32.1,30.03,NW,315,1.0,2.0,86,0.00,,---,0.00,0.00,VWS V14.01,2013-05-25 10:01:00,
2013-05-25 03:06:00,35.9,32.1,30.03,NNW,333,1.0,3.0,86,0.00,,---,0.00,0.00,VWS V14.01,2013-05-25 10:06:00,
2013-05-25 03:11:00,36.1,32.3,30.03,NNW,333,2.0,4.0,86,0.00,,---,0.00,0.00,VWS V14.01,2013-05-25 10:11:00,
2013-05-25 03:16:00,36.5,32.4,30.03,North,360,2.0,5.0,85,0.00,,---,0.00,0.00,VWS V14.01,2013-05-25 10:16:00,
2013-05-25 03:21:00,36.8,32.7,30.03,North,11,1.0,5.0,85,0.00,,---,0.00,0.00,VWS V14.01,2013-05-25 10:21:00,
2013-05-25 03:26:00,36.9,32.5,30.03,NNW,345,3.0,5.0,84,0.00,,---,0.00,0.00,VWS V14.01,2013-05-25 10:26:00,
2013-05-25 03:31:00,36.9,32.2,30.03,NNE,16,1.0,5.0,83,0.00,,---,0.00,0.00,VWS V14.01,2013-05-25 10:31:00,
2013-05-25 03:36:00,36.9,32.2,30.03,NNE,18,4.0,5.0,83,0.00,,---,0.00,0.00,VWS V14.01,2013-05-25 10:36:00,
2013-05-25 03:41:00,36.8,32.1,30.03,North,355,0.0,5.0,83,0.00,,---,0.00,0.00,VWS V14.01,2013-05-25 10:41:00,
2013-05-25 03:46:00,36.6,31.9,30.03,NNE,27,1.0,5.0,83,0.00,,---,0.00,0.00,VWS V14.01,2013-05-25 10:46:00,
2013-05-25 03:51:00,36.5,31.8,30.03,NNE,26,2.0,5.0,83,0.00,,---,0.00,0.00,VWS V14.01,2013-05-25 10:51:00,
2013-05-25 03:56:00,36.5,31.8,30.03,NNE,24,1.0,5.0,83,0.00,,---,0.00,0.00,VWS V14.01,2013-05-25 10:56:00,
2013-05-25 04:00:00,36.4,32.0,30.03,North,355,1.0,4.0,84,0.00,,---,0.00,0.00,VWS V14.01,2013-05-25 11:00:00,
2013-05-25 04:05:00,36.4,32.0,30.03,NNE,14,1.0,5.0,84,0.00,,---,0.00,0.00,VWS V14.01,2013-05-25 11:05:00,
2013-05-25 04:10:00,36.4,32.0,30.03,North,355,4.0,6.0,84,0.00,,---,0.00,0.00,VWS V14.01,2013-05-25 11:10:00,
2013-05-25 04:16:00,36.4,32.0,30.03,North,351,4.0,6.0,84,0.00,,---,0.00,0.00,VWS V14.01,2013-05-25 11:16:00,
2013-05-25 04:21:00,36.4,32.0,30.03,NNW,346,3.0,6.0,84,0.00,,---,0.00,0.00,VWS V14.01,2013-05-25 11:21:00,
2013-05-25 04:25:00,36.4,32.0,30.03,NNW,342,2.0,6.0,84,0.00,,---,0.00,0.00,VWS V14.01,2013-05-25 11:25:00,
2013-05-25 04:30:00,36.3,31.9,30.03,NNE,17,4.0,4.0,84,0.00,,---,0.00,0.00,VWS V14.01,2013-05-25 11:30:00,
2013-05-25 04:35:00,36.2,31.8,30.03,North,5,2.0,5.0,84,0.00,,---,0.00,0.00,VWS V14.01,2013-05-25 11:35:00,
2013-05-25 04:40:00,36.1,31.7,30.03,North,5,3.0,5.0,84,0.00,,---,0.00,0.00,VWS V14.01,2013-05-25 11:40:00,
2013-05-25 04:45:00,36.0,31.6,30.03,North,351,1.0,5.0,84,0.00,,---,0.00,0.00,VWS V14.01,2013-05-25 11:45:00,
2013-05-25 04:50:00,35.8,31.5,30.03,NNW,344,1.0,5.0,84,0.00,,---,0.00,0.00,VWS V14.01,2013-05-25 11:50:00,
2013-05-25 04:55:00,35.6,31.5,30.03,North,360,4.0,7.0,85,0.00,,---,0.00,0.00,VWS V14.01,2013-05-25 11:55:00,
2013-05-25 05:03:00,35.5,31.5,30.03,North,9,2.0,2.0,85,0.00,,---,0.00,0.00,VWS V14.01,2013-05-25 12:03:00,
2013-05-25 05:08:00,35.2,31.1,30.03,NNE,25,3.0,5.0,85,0.00,,---,0.00,0.00,VWS V14.01,2013-05-25 12:08:00,
2013-05-25 05:13:00,35.1,31.0,30.03,NNE,12,4.0,8.0,85,0.00,,---,0.00,0.00,VWS V14.01,2013-05-25 12:13:00,
2013-05-25 05:18:00,35.0,31.2,30.03,NNE,14,5.0,8.0,86,0.00,,---,0.00,0.00,VWS V14.01,2013-05-25 12:18:00,
2013-05-25 05:23:00,35.2,31.4,30.03,NNE,21,5.0,9.0,86,0.00,,---,0.00,0.00,VWS V14.01,2013-05-25 12:23:00,
2013-05-25 05:28:00,35.3,31.8,30.03,NNW,338,2.0,9.0,87,0.00,,---,0.00,0.00,VWS V14.01,2013-05-25 12:28:00,
2013-05-25 05:33:00,35.4,31.9,30.03,NNW,346,6.0,7.0,87,0.00,,---,0.00,5.00,VWS V14.01,2013-05-25 12:33:00,
2013-05-25 05:38:00,35.5,32.0,30.03,North,5,5.0,7.0,87,0.00,,---,0.00,7.00,VWS V14.01,2013-05-25 12:38:00,
2013-05-25 05:43:00,35.5,31.7,30.03,NNE,25,3.0,7.0,86,0.00,,---,0.00,9.00,VWS V14.01,2013-05-25 12:43:00,
2013-05-25 05:48:00,35.5,31.7,30.03,NNW,340,5.0,8.0,86,0.00,,---,0.00,11.00,VWS V14.01,2013-05-25 12:48:00,
2013-05-25 05:53:00,35.4,31.6,30.03,North,9,4.0,8.0,86,0.00,,---,0.00,12.00,VWS V14.01,2013-05-25 12:53:00,
2013-05-25 05:58:00,35.3,31.5,30.03,North,5,2.0,8.0,86,0.00,,---,0.00,14.00,VWS V14.01,2013-05-25 12:58:00,
2013-05-25 06:03:00,35.2,31.4,30.03,North,5,3.0,6.0,86,0.00,,---,0.00,16.00,VWS V14.01,2013-05-25 13:03:00,
2013-05-25 06:08:00,35.1,31.3,30.03,NNE,16,3.0,7.0,86,0.00,,---,0.00,18.00,VWS V14.01,2013-05-25 13:08:00,
2013-05-25 06:13:00,35.1,31.3,30.03,NNE,17,3.0,7.0,86,0.00,,---,0.00,19.00,VWS V14.01,2013-05-25 13:13:00,
2013-05-25 06:18:00,35.1,31.3,30.03,NNW,333,4.0,7.0,86,0.00,,---,0.00,21.00,VWS V14.01,2013-05-25 13:18:00,
2013-05-25 06:23:00,35.1,31.3,30.03,North,360,4.0,7.0,86,0.00,,---,0.00,21.00,VWS V14.01,2013-05-25 13:23:00,
2013-05-25 06:28:00,35.2,31.4,30.03,NNE,18,3.0,7.0,86,0.00,,---,0.00,23.00,VWS V14.01,2013-05-25 13:28:00,
2013-05-25 06:33:00,35.2,31.7,30.03,NNW,345,1.0,8.0,87,0.00,,---,0.00,25.00,VWS V14.01,2013-05-25 13:33:00,
2013-05-25 06:38:00,35.4,32.2,30.03,North,11,6.0,8.0,88,0.00,,---,0.00,25.00,VWS V14.01,2013-05-25 13:38:00,
2013-05-25 06:43:00,35.6,32.7,30.03,NE,40,6.0,9.0,89,0.00,,---,0.00,26.00,VWS V14.01,2013-05-25 13:43:00,
2013-05-25 06:48:00,35.7,32.8,30.03,NW,308,3.0,9.0,89,0.00,,---,0.00,28.00,VWS V14.01,2013-05-25 13:48:00,
2013-05-25 06:53:00,35.8,32.6,30.03,NNE,12,7.0,9.0,88,0.00,,---,0.00,28.00,VWS V14.01,2013-05-25 13:53:00,
2013-05-25 06:58:00,35.9,33.0,30.03,NNE,29,3.0,9.0,89,0.00,,---,0.00,30.00,VWS V14.01,2013-05-25 13:58:00,
2013-05-25 07:03:00,36.0,32.5,30.03,North,355,2.0,5.0,87,0.00,,---,0.00,30.00,VWS V14.01,2013-05-25 14:03:00,
2013-05-25 07:08:00,36.2,32.7,30.03,NW,315,1.0,7.0,87,0.00,,---,0.00,62.00,VWS V14.01,2013-05-25 14:08:00,
2013-05-25 07:13:00,36.4,33.2,30.03,NNW,338,4.0,7.0,88,0.00,,---,0.00,54.00,VWS V14.01,2013-05-25 14:13:00,
2013-05-25 07:17:00,36.7,33.5,30.03,NNW,346,3.0,7.0,88,0.00,,---,0.00,32.00,VWS V14.01,2013-05-25 14:17:00,
2013-05-25 07:22:00,37.0,33.5,30.03,North,5,1.0,7.0,87,0.00,,---,0.00,33.00,VWS V14.01,2013-05-25 14:22:00,
2013-05-25 07:28:00,37.3,33.8,30.03,North,355,1.0,7.0,87,0.00,,---,0.00,33.00,VWS V14.01,2013-05-25 14:28:00,
2013-05-25 07:33:00,37.6,34.4,30.03,North,11,3.0,5.0,88,0.00,,---,0.00,33.00,VWS V14.01,2013-05-25 14:33:00,
2013-05-25 07:37:00,37.9,34.7,30.03,North,5,6.0,6.0,88,0.00,,---,0.00,69.00,VWS V14.01,2013-05-25 14:37:00,
2013-05-25 07:42:00,38.3,34.8,30.03,North,360,4.0,7.0,87,0.00,,---,0.00,54.00,VWS V14.01,2013-05-25 14:42:00,
2013-05-25 07:47:00,38.6,35.1,30.03,NNE,31,4.0,7.0,87,0.00,,---,0.00,77.00,VWS V14.01,2013-05-25 14:47:00,
2013-05-25 07:52:00,38.9,35.4,30.03,NE,46,3.0,8.0,87,0.00,,---,0.00,53.00,VWS V14.01,2013-05-25 14:52:00,
2013-05-25 07:57:00,39.2,35.4,30.03,ENE,57,3.0,8.0,86,0.00,,---,0.00,353.00,VWS V14.01,2013-05-25 14:57:00,
2013-05-25 08:02:00,39.5,35.7,30.03,NNE,14,4.0,5.0,86,0.00,,---,0.00,367.00,VWS V14.01,2013-05-25 15:02:00,
2013-05-25 08:07:00,39.8,35.4,30.03,NNE,32,1.0,5.0,84,0.00,,---,0.00,380.00,VWS V14.01,2013-05-25 15:07:00,
2013-05-25 08:12:00,40.1,35.4,30.03,NNE,24,0.0,5.0,83,0.00,,---,0.00,396.00,VWS V14.01,2013-05-25 15:12:00,
2013-05-25 08:17:00,40.4,35.3,30.03,NW,311,0.0,5.0,82,0.00,,---,0.00,413.00,VWS V14.01,2013-05-25 15:17:00,
2013-05-25 08:22:00,41.1,35.7,30.03,West,275,2.0,5.0,81,0.00,,---,0.00,429.00,VWS V14.01,2013-05-25 15:22:00,
2013-05-25 08:27:00,41.6,36.5,30.03,NW,311,0.0,5.0,82,0.00,,---,0.00,443.00,VWS V14.01,2013-05-25 15:27:00,
2013-05-25 08:32:00,41.9,36.2,30.03,NE,47,0.0,0.0,80,0.00,,---,0.00,461.00,VWS V14.01,2013-05-25 15:32:00,
2013-05-25 08:37:00,42.2,35.8,30.03,ESE,105,1.0,3.0,78,0.00,,---,0.00,475.00,VWS V14.01,2013-05-25 15:37:00,
2013-05-25 08:42:00,42.8,35.8,30.03,WSW,257,1.0,3.0,76,0.00,,---,0.00,490.00,VWS V14.01,2013-05-25 15:42:00,
2013-05-25 08:47:00,43.7,36.3,30.03,South,178,1.0,3.0,75,0.00,,---,0.00,47.00,VWS V14.01,2013-05-25 15:47:00,
2013-05-25 08:52:00,44.0,35.6,30.03,ESE,113,0.0,3.0,72,0.00,,---,0.00,218.00,VWS V14.01,2013-05-25 15:52:00,
2013-05-25 08:57:00,44.5,36.4,30.03,North,5,0.0,3.0,73,0.00,,---,0.00,49.00,VWS V14.01,2013-05-25 15:57:00,
2013-05-25 09:02:00,44.7,35.9,30.03,NE,38,0.0,1.0,71,0.00,,---,0.00,446.00,VWS V14.01,2013-05-25 16:02:00,
2013-05-25 09:07:00,44.8,35.6,30.02,NE,39,0.0,1.0,70,0.00,,---,0.00,320.00,VWS V14.01,2013-05-25 16:07:00,
2013-05-25 09:12:00,45.2,35.7,30.02,SW,221,0.0,3.0,69,0.00,,---,0.00,53.00,VWS V14.01,2013-05-25 16:12:00,
2013-05-25 09:17:00,45.8,36.2,30.02,South,180,0.0,3.0,69,0.00,,---,0.00,591.00,VWS V14.01,2013-05-25 16:17:00,
2013-05-25 09:22:00,46.0,34.9,30.02,ENE,77,0.0,3.0,65,0.00,,---,0.00,606.00,VWS V14.01,2013-05-25 16:22:00,
2013-05-25 09:27:00,46.3,34.8,30.02,SE,141,0.0,3.0,64,0.00,,---,0.00,621.00,VWS V14.01,2013-05-25 16:27:00,
2013-05-25 09:32:00,46.6,34.7,30.02,North,360,0.0,1.0,63,0.00,,---,0.00,636.00,VWS V14.01,2013-05-25 16:32:00,
2013-05-25 09:37:00,46.9,35.4,30.02,SE,139,0.0,3.0,64,0.00,,---,0.00,650.00,VWS V14.01,2013-05-25 16:37:00,
2013-05-25 09:42:00,47.2,34.9,30.01,ESE,123,0.0,3.0,62,0.00,,---,0.00,664.00,VWS V14.01,2013-05-25 16:42:00,
2013-05-25 09:47:00,47.8,33.8,30.01,WNW,291,2.0,3.0,58,0.00,,---,0.00,673.00,VWS V14.01,2013-05-25 16:47:00,
2013-05-25 09:52:00,48.4,33.9,30.01,NNE,22,1.0,3.0,57,0.00,,---,0.00,686.00,VWS V14.01,2013-05-25 16:52:00,
2013-05-25 09:57:00,48.5,33.1,30.01,North,349,0.0,3.0,55,0.00,,---,0.00,680.00,VWS V14.01,2013-05-25 16:57:00,
2013-05-25 10:02:00,49.1,35.0,30.01,East,80,6.0,7.0,58,0.00,,---,0.00,712.00,VWS V14.01,2013-05-25 17:02:00,
2013-05-25 10:07:00,49.0,33.5,30.01,SE,132,2.0,7.0,55,0.00,,---,0.00,722.00,VWS V14.01,2013-05-25 17:07:00,
2013-05-25 10:12:00,49.1,33.2,30.01,ESE,113,0.0,7.0,54,0.00,,---,0.00,735.00,VWS V14.01,2013-05-25 17:12:00,
2013-05-25 10:17:00,49.2,32.8,30.01,East,86,0.0,7.0,53,0.00,,---,0.00,745.00,VWS V14.01,2013-05-25 17:17:00,
2013-05-25 10:22:00,49.4,34.4,30.01,ENE,69,0.0,7.0,56,0.00,,---,0.00,754.00,VWS V14.01,2013-05-25 17:22:00,
2013-05-25 10:27:00,49.6,34.1,30.01,SE,144,2.0,7.0,55,0.00,,---,0.00,766.00,VWS V14.01,2013-05-25 17:27:00,
2013-05-25 10:32:00,50.0,34.9,30.01,SSE,164,0.0,4.0,56,0.00,,---,0.00,779.00,VWS V14.01,2013-05-25 17:32:00,
2013-05-25 10:37:00,50.3,34.8,30.01,SSE,157,1.0,4.0,55,0.00,,---,0.00,791.00,VWS V14.01,2013-05-25 17:37:00,
2013-05-25 10:42:00,50.8,33.3,30.00,SW,223,0.0,5.0,51,0.00,,---,0.00,802.00,VWS V14.01,2013-05-25 17:42:00,
2013-05-25 10:47:00,51.5,35.0,30.01,SW,223,2.0,6.0,53,0.00,,---,0.00,816.00,VWS V14.01,2013-05-25 17:47:00,
2013-05-25 10:52:00,52.2,36.5,30.00,North,5,0.0,6.0,55,0.00,,---,0.00,798.00,VWS V14.01,2013-05-25 17:52:00,
2013-05-25 10:57:00,52.8,35.2,30.00,West,273,3.0,6.0,51,0.00,,---,0.00,833.00,VWS V14.01,2013-05-25 17:57:00,
2013-05-25 11:02:00,53.7,35.0,30.00,West,281,0.0,5.0,49,0.00,,---,0.00,840.00,VWS V14.01,2013-05-25 18:02:00,
2013-05-25 11:07:00,53.9,34.7,30.00,WSW,240,0.0,5.0,48,0.00,,---,0.00,849.00,VWS V14.01,2013-05-25 18:07:00,
2013-05-25 11:12:00,54.1,34.9,30.00,SW,233,2.0,5.0,48,0.00,,---,0.00,860.00,VWS V14.01,2013-05-25 18:12:00,
2013-05-25 11:17:00,54.2,33.9,30.00,SW,229,0.0,5.0,46,0.00,,---,0.00,870.00,VWS V14.01,2013-05-25 18:17:00,
2013-05-25 11:22:00,54.5,34.7,30.00,WSW,238,0.0,5.0,47,0.00,,---,0.00,882.00,VWS V14.01,2013-05-25 18:22:00,
2013-05-25 11:27:00,55.3,36.5,30.00,WSW,242,4.0,5.0,49,0.00,,---,0.00,867.00,VWS V14.01,2013-05-25 18:27:00,
2013-05-25 11:32:00,55.6,36.8,30.00,SSE,159,2.0,3.0,49,0.00,,---,0.00,846.00,VWS V14.01,2013-05-25 18:32:00,
2013-05-25 11:37:00,55.7,34.1,30.00,SW,233,0.0,3.0,44,0.00,,---,0.00,835.00,VWS V14.01,2013-05-25 18:37:00,
2013-05-25 11:42:00,55.8,35.3,30.00,SSE,157,4.0,5.0,46,0.00,,---,0.00,872.00,VWS V14.01,2013-05-25 18:42:00,
2013-05-25 11:47:00,56.2,35.2,30.00,South,169,1.0,5.0,45,0.00,,---,0.00,865.00,VWS V14.01,2013-05-25 18:47:00,
2013-05-25 11:52:00,56.8,35.7,30.00,SE,145,1.0,6.0,45,0.00,,---,0.00,838.00,VWS V14.01,2013-05-25 18:52:00,
2013-05-25 11:57:00,57.0,37.0,30.00,South,188,0.0,6.0,47,0.00,,---,0.00,889.00,VWS V14.01,2013-05-25 18:57:00,
2013-05-25 12:02:00,57.1,36.5,30.00,SSE,159,2.0,5.0,46,0.00,,---,0.00,925.00,VWS V14.01,2013-05-25 19:02:00,
2013-05-25 12:07:00,57.3,33.8,29.99,SW,227,5.0,5.0,41,0.00,,---,0.00,932.00,VWS V14.01,2013-05-25 19:07:00,
2013-05-25 12:12:00,57.5,35.8,29.99,SSW,206,5.0,5.0,44,0.00,,---,0.00,930.00,VWS V14.01,2013-05-25 19:12:00,
2013-05-25 12:17:00,58.0,36.8,29.99,SE,144,7.0,7.0,45,0.00,,---,0.00,932.00,VWS V14.01,2013-05-25 19:17:00,
2013-05-25 12:22:00,58.6,36.8,29.99,SW,233,4.0,7.0,44,0.00,,---,0.00,937.00,VWS V14.01,2013-05-25 19:22:00,
2013-05-25 12:27:00,59.0,36.6,29.99,SW,236,4.0,8.0,43,0.00,,---,0.00,946.00,VWS V14.01,2013-05-25 19:27:00,
2013-05-25 12:32:00,59.5,34.5,29.99,SW,228,2.0,6.0,39,0.00,,---,0.00,970.00,VWS V14.01,2013-05-25 19:32:00,
2013-05-25 12:37:00,59.8,36.7,29.99,SSW,193,0.0,7.0,42,0.00,,---,0.00,981.00,VWS V14.01,2013-05-25 19:37:00,
2013-05-25 12:42:00,60.0,34.3,29.99,SSE,167,2.0,7.0,38,0.00,,---,0.00,214.00,VWS V14.01,2013-05-25 19:42:00,
2013-05-25 12:47:00,60.1,33.8,29.99,WSW,254,2.0,7.0,37,0.00,,---,0.00,1009.00,VWS V14.01,2013-05-25 19:47:00,
2013-05-25 12:52:00,60.5,34.8,29.99,South,173,1.0,7.0,38,0.00,,---,0.00,928.00,VWS V14.01,2013-05-25 19:52:00,
2013-05-25 12:57:00,60.5,34.1,29.99,WSW,248,4.0,7.0,37,0.00,,---,0.00,993.00,VWS V14.01,2013-05-25 19:57:00,
2013-05-25 13:02:00,60.5,36.7,29.99,SSW,199,3.0,5.0,41,0.00,,---,0.00,997.00,VWS V14.01,2013-05-25 20:02:00,
2013-05-25 13:07:00,60.6,32.8,29.99,South,191,2.0,7.0,35,0.00,,---,0.00,805.00,VWS V14.01,2013-05-25 20:07:00,
2013-05-25 13:12:00,60.4,32.7,29.99,WSW,245,3.0,7.0,35,0.00,,---,0.00,879.00,VWS V14.01,2013-05-25 20:12:00,
2013-05-25 13:17:00,60.7,35.0,29.98,South,180,5.0,7.0,38,0.00,,---,0.00,919.00,VWS V14.01,2013-05-25 20:17:00,
2013-05-25 13:22:00,61.3,34.1,29.98,SSE,161,2.0,7.0,36,0.00,,---,0.00,914.00,VWS V14.01,2013-05-25 20:22:00,
2013-05-25 13:27:00,61.3,32.7,29.98,WNW,284,2.0,7.0,34,0.00,,---,0.00,893.00,VWS V14.01,2013-05-25 20:27:00,
2013-05-25 13:32:00,61.1,36.6,29.98,South,170,0.0,3.0,40,0.00,,---,0.00,860.00,VWS V14.01,2013-05-25 20:32:00,
2013-05-25 13:37:00,61.8,35.3,29.98,SSE,162,4.0,8.0,37,0.00,,---,0.00,933.00,VWS V14.01,2013-05-25 20:37:00,
2013-05-25 13:42:00,62.5,38.5,29.97,SSE,158,1.0,8.0,41,0.00,,---,0.00,893.00,VWS V14.01,2013-05-25 20:42:00,
2013-05-25 13:47:00,63.1,37.8,29.97,ENE,78,1.0,8.0,39,0.00,,---,0.00,846.00,VWS V14.01,2013-05-25 20:47:00,
2013-05-25 13:52:00,63.6,34.7,29.97,WSW,249,4.0,8.0,34,0.00,,---,0.00,840.00,VWS V14.01,2013-05-25 20:52:00,
2013-05-25 13:57:00,63.4,36.0,29.97,SSW,205,3.0,8.0,36,0.00,,---,0.00,805.00,VWS V14.01,2013-05-25 20:57:00,
2013-05-25 14:02:00,63.2,36.5,29.97,SSW,204,3.0,5.0,37,0.00,,---,0.00,816.00,VWS V14.01,2013-05-25 21:02:00,
2013-05-25 14:07:00,63.6,35.5,29.97,South,173,0.0,6.0,35,0.00,,---,0.00,814.00,VWS V14.01,2013-05-25 21:07:00,
2013-05-25 14:12:00,63.9,35.0,29.97,South,179,0.0,6.0,34,0.00,,---,0.00,853.00,VWS V14.01,2013-05-25 21:12:00,
2013-05-25 14:17:00,64.1,37.3,29.97,East,96,1.0,6.0,37,0.00,,---,0.00,935.00,VWS V14.01,2013-05-25 21:17:00,
2013-05-25 14:22:00,64.3,34.6,29.97,SSE,159,1.0,6.0,33,0.00,,---,0.00,907.00,VWS V14.01,2013-05-25 21:22:00,
2013-05-25 14:27:00,64.5,37.0,29.96,SSW,194,1.0,6.0,36,0.00,,---,0.00,464.00,VWS V14.01,2013-05-25 21:27:00,
2013-05-25 14:32:00,64.5,37.0,29.96,South,174,1.0,2.0,36,0.00,,---,0.00,367.00,VWS V14.01,2013-05-25 21:32:00,
2013-05-25 14:37:00,64.3,34.6,29.96,SSW,206,5.0,5.0,33,0.00,,---,0.00,849.00,VWS V14.01,2013-05-25 21:37:00,
2013-05-25 14:42:00,64.3,36.8,29.96,SSE,168,2.0,6.0,36,0.00,,---,0.00,341.00,VWS V14.01,2013-05-25 21:42:00,
2013-05-25 14:47:00,64.1,37.3,29.96,SSE,167,1.0,6.0,37,0.00,,---,0.00,348.00,VWS V14.01,2013-05-25 21:47:00,
2013-05-25 14:52:00,64.0,35.1,29.96,SSE,161,1.0,6.0,34,0.00,,---,0.00,352.00,VWS V14.01,2013-05-25 21:52:00,
2013-05-25 14:57:00,63.9,35.7,29.96,SW,223,0.0,6.0,35,0.00,,---,0.00,355.00,VWS V14.01,2013-05-25 21:57:00,
2013-05-25 15:02:00,64.0,35.8,29.96,SSE,165,2.0,3.0,35,0.00,,---,0.00,355.00,VWS V14.01,2013-05-25 22:02:00,
2013-05-25 15:07:00,63.9,35.0,29.96,WSW,248,1.0,4.0,34,0.00,,---,0.00,413.00,VWS V14.01,2013-05-25 22:07:00,
2013-05-25 15:12:00,63.9,35.7,29.96,South,188,2.0,6.0,35,0.00,,---,0.00,482.00,VWS V14.01,2013-05-25 22:12:00,
2013-05-25 15:17:00,64.1,34.4,29.96,SW,218,0.0,6.0,33,0.00,,---,0.00,404.00,VWS V14.01,2013-05-25 22:17:00,
2013-05-25 15:22:00,64.3,36.8,29.95,SSW,207,2.0,6.0,36,0.00,,---,0.00,394.00,VWS V14.01,2013-05-25 22:22:00,
2013-05-25 15:27:00,64.4,36.9,29.95,WSW,239,6.0,6.0,36,0.00,,---,0.00,323.00,VWS V14.01,2013-05-25 22:27:00,
2013-05-25 15:32:00,64.2,36.7,29.96,SE,145,4.0,7.0,36,0.00,,---,0.00,313.00,VWS V14.01,2013-05-25 22:32:00,
2013-05-25 15:37:00,63.5,35.4,29.96,East,94,1.0,7.0,35,0.00,,---,0.00,318.00,VWS V14.01,2013-05-25 22:37:00,
2013-05-25 15:42:00,62.9,36.2,29.96,East,82,2.0,8.0,37,0.00,,---,0.00,297.00,VWS V14.01,2013-05-25 22:42:00,
2013-05-25 15:47:00,62.8,36.2,29.96,SSE,155,1.0,8.0,37,0.00,,---,0.00,285.00,VWS V14.01,2013-05-25 22:47:00,
2013-05-25 15:52:00,63.0,36.3,29.96,SSE,155,1.0,9.0,37,0.00,,---,0.00,297.00,VWS V14.01,2013-05-25 22:52:00,
2013-05-25 15:57:00,63.1,37.1,29.96,SSE,167,7.0,9.0,38,0.00,,---,0.00,302.00,VWS V14.01,2013-05-25 22:57:00,
2013-05-25 16:02:00,63.2,36.5,29.96,SSW,195,1.0,1.0,37,0.00,,---,0.00,369.00,VWS V14.01,2013-05-25 23:02:00,
2013-05-25 16:07:00,63.3,37.3,29.95,SSE,163,3.0,5.0,38,0.00,,---,0.00,367.00,VWS V14.01,2013-05-25 23:07:00,
2013-05-25 16:12:00,63.2,35.1,29.95,SSW,210,0.0,7.0,35,0.00,,---,0.00,309.00,VWS V14.01,2013-05-25 23:12:00,
2013-05-25 16:17:00,63.1,35.7,29.95,SW,223,4.0,7.0,36,0.00,,---,0.00,336.00,VWS V14.01,2013-05-25 23:17:00,
2013-05-25 16:22:00,62.9,35.6,29.95,SSW,196,4.0,7.0,36,0.00,,---,0.00,390.00,VWS V14.01,2013-05-25 23:22:00,
2013-05-25 16:27:00,63.0,36.3,29.95,South,188,1.0,7.0,37,0.00,,---,0.00,285.00,VWS V14.01,2013-05-25 23:27:00,
2013-05-25 16:32:00,63.1,36.4,29.95,SW,236,3.0,7.0,37,0.00,,---,0.00,424.00,VWS V14.01,2013-05-25 23:32:00,
2013-05-25 16:37:00,62.8,35.5,29.94,SSE,168,3.0,7.0,36,0.00,,---,0.00,309.00,VWS V14.01,2013-05-25 23:37:00,
2013-05-25 16:42:00,62.7,36.1,29.95,SW,215,4.0,11.0,37,0.00,,---,0.00,283.00,VWS V14.01,2013-05-25 23:42:00,
2013-05-25 16:47:00,62.3,35.0,29.95,SSE,161,5.0,11.0,36,0.00,,---,0.00,269.00,VWS V14.01,2013-05-25 23:47:00,
2013-05-25 16:52:00,62.1,36.9,29.95,SSE,165,3.0,11.0,39,0.00,,---,0.00,227.00,VWS V14.01,2013-05-25 23:52:00,
2013-05-25 16:57:00,62.0,36.1,29.95,SW,221,1.0,11.0,38,0.00,,---,0.00,185.00,VWS V14.01,2013-05-25 23:57:00,
2013-05-25 17:02:00,61.7,36.5,29.94,SSE,153,4.0,5.0,39,0.00,,---,0.00,169.00,VWS V14.01,2013-05-26 00:02:00,
2013-05-25 17:07:00,61.6,37.1,29.95,SSW,208,2.0,7.0,40,0.00,,---,0.00,158.00,VWS V14.01,2013-05-26 00:07:00,
2013-05-25 17:12:00,61.6,37.1,29.95,SSE,158,2.0,7.0,40,0.00,,---,0.00,163.00,VWS V14.01,2013-05-26 00:12:00,
2013-05-25 17:17:00,61.5,37.0,29.94,SSE,153,4.0,9.0,40,0.00,,---,0.00,195.00,VWS V14.01,2013-05-26 00:17:00,
2013-05-25 17:22:00,61.3,36.8,29.95,SW,223,4.0,9.0,40,0.00,,---,0.00,223.00,VWS V14.01,2013-05-26 00:22:00,
2013-05-25 17:27:00,60.8,37.6,29.95,SSE,151,3.0,9.0,42,0.00,,---,0.00,190.00,VWS V14.01,2013-05-26 00:27:00,
2013-05-25 17:32:00,60.7,37.5,29.94,SW,230,2.0,5.0,42,0.00,,---,0.00,134.00,VWS V14.01,2013-05-26 00:32:00,
2013-05-25 17:37:00,60.6,37.4,29.95,SSE,162,4.0,6.0,42,0.00,,---,0.00,95.00,VWS V14.01,2013-05-26 00:37:00,
2013-05-25 17:42:00,60.4,37.2,29.95,SSE,149,0.0,6.0,42,0.00,,---,0.00,86.00,VWS V14.01,2013-05-26 00:42:00,
2013-05-25 17:47:00,60.3,38.3,29.94,SW,234,2.0,6.0,44,0.00,,---,0.00,114.00,VWS V14.01,2013-05-26 00:47:00,
2013-05-25 17:52:00,60.1,39.3,29.94,SSE,162,0.0,6.0,46,0.00,,---,0.00,127.00,VWS V14.01,2013-05-26 00:52:00,
2013-05-25 17:57:00,60.0,39.7,29.94,SSE,159,2.0,6.0,47,0.00,,---,0.00,128.00,VWS V14.01,2013-05-26 00:57:00,
2013-05-25 18:02:00,59.9,38.0,29.94,SE,143,4.0,5.0,44,0.00,,---,0.00,116.00,VWS V14.01,2013-05-26 01:02:00,
2013-05-25 18:07:00,59.5,38.2,29.94,SSE,149,1.0,7.0,45,0.00,,---,0.00,98.00,VWS V14.01,2013-05-26 01:07:00,
2013-05-25 18:12:00,59.3,37.4,29.94,South,176,2.0,7.0,44,0.00,,---,0.00,93.00,VWS V14.01,2013-05-26 01:12:00,
2013-05-25 18:17:00,59.1,37.8,29.94,SSE,148,3.0,7.0,45,0.00,,---,0.00,76.00,VWS V14.01,2013-05-26 01:17:00,
2013-05-25 18:22:00,58.9,38.2,29.94,SSE,160,3.0,7.0,46,0.00,,---,0.00,54.00,VWS V14.01,2013-05-26 01:22:00,
2013-05-25 18:27:00,58.7,38.0,29.94,SSE,168,3.0,7.0,46,0.00,,---,0.00,47.00,VWS V14.01,2013-05-26 01:27:00,
2013-05-25 18:32:00,58.5,38.9,29.94,SE,132,1.0,2.0,48,0.00,,---,0.00,54.00,VWS V14.01,2013-05-26 01:32:00,
2013-05-25 18:37:00,58.3,38.2,29.94,SE,146,3.0,3.0,47,0.00,,---,0.00,69.00,VWS V14.01,2013-05-26 01:37:00,
2013-05-25 18:42:00,58.2,39.2,29.94,SE,144,4.0,5.0,49,0.00,,---,0.00,84.00,VWS V14.01,2013-05-26 01:42:00,
2013-05-25 18:47:00,58.0,38.4,29.94,SE,138,1.0,5.0,48,0.00,,---,0.00,91.00,VWS V14.01,2013-05-26 01:47:00,
2013-05-25 18:52:00,57.8,39.3,29.94,SSE,156,1.0,6.0,50,0.00,,---,0.00,88.00,VWS V14.01,2013-05-26 01:52:00,
2013-05-25 18:57:00,57.6,39.6,29.94,SE,133,0.0,6.0,51,0.00,,---,0.00,83.00,VWS V14.01,2013-05-26 01:57:00,
2013-05-25 19:02:00,57.4,39.9,29.94,SE,144,2.0,3.0,52,0.00,,---,0.00,81.00,VWS V14.01,2013-05-26 02:02:00,
2013-05-25 19:07:00,57.2,39.2,29.94,SSE,153,1.0,3.0,51,0.00,,---,0.00,67.00,VWS V14.01,2013-05-26 02:07:00,
2013-05-25 19:12:00,57.1,40.2,29.94,SE,134,0.0,3.0,53,0.00,,---,0.00,44.00,VWS V14.01,2013-05-26 02:12:00,
2013-05-25 19:17:00,56.9,40.4,29.95,East,88,5.0,8.0,54,0.00,,---,0.00,39.00,VWS V14.01,2013-05-26 02:17:00,
2013-05-25 19:22:00,56.5,41.0,29.95,SSE,150,6.0,9.0,56,0.00,,---,0.00,28.00,VWS V14.01,2013-05-26 02:22:00,
2013-05-25 19:27:00,56.0,40.5,29.95,SE,142,4.0,9.0,56,0.00,,---,0.00,23.00,VWS V14.01,2013-05-26 02:27:00,
2013-05-25 19:32:00,55.6,42.0,29.95,East,94,2.0,5.0,60,0.00,,---,0.00,19.00,VWS V14.01,2013-05-26 02:32:00,
2013-05-25 19:37:00,55.0,42.7,29.95,SE,138,3.0,8.0,63,0.00,,---,0.00,18.00,VWS V14.01,2013-05-26 02:37:00,
2013-05-25 19:42:00,54.5,42.6,29.95,East,90,0.0,8.0,64,0.00,,---,0.00,16.00,VWS V14.01,2013-05-26 02:42:00,
2013-05-25 19:47:00,54.2,42.7,29.95,ESE,105,2.0,8.0,65,0.00,,---,0.00,16.00,VWS V14.01,2013-05-26 02:47:00,
2013-05-25 19:52:00,53.8,42.3,29.95,SSE,152,2.0,8.0,65,0.00,,---,0.00,14.00,VWS V14.01,2013-05-26 02:52:00,
2013-05-25 19:57:00,53.5,41.6,29.95,SSE,162,2.0,8.0,64,0.00,,---,0.00,14.00,VWS V14.01,2013-05-26 02:57:00,
2013-05-25 20:02:00,53.3,41.8,29.95,SE,146,3.0,7.0,65,0.00,,---,0.00,11.00,VWS V14.01,2013-05-26 03:02:00,
2013-05-25 20:07:00,53.0,42.0,29.95,SE,131,2.0,7.0,66,0.00,,---,0.00,7.00,VWS V14.01,2013-05-26 03:07:00,
2013-05-25 20:12:00,52.7,41.7,29.96,ESE,104,3.0,7.0,66,0.00,,---,0.00,5.00,VWS V14.01,2013-05-26 03:12:00,
2013-05-25 20:17:00,52.5,41.9,29.97,ESE,107,1.0,7.0,67,0.00,,---,0.00,0.00,VWS V14.01,2013-05-26 03:17:00,
2013-05-25 20:22:00,52.3,41.7,29.96,East,92,2.0,7.0,67,0.00,,---,0.00,0.00,VWS V14.01,2013-05-26 03:22:00,
2013-05-25 20:27:00,52.2,42.0,29.96,ENE,73,3.0,7.0,68,0.00,,---,0.00,0.00,VWS V14.01,2013-05-26 03:27:00,
2013-05-25 20:32:00,52.1,42.2,29.96,SE,127,3.0,5.0,69,0.00,,---,0.00,0.00,VWS V14.01,2013-05-26 03:32:00,
2013-05-25 20:37:00,51.9,43.2,29.96,East,88,2.0,6.0,72,0.00,,---,0.00,0.00,VWS V14.01,2013-05-26 03:37:00,
2013-05-25 20:42:00,51.4,44.4,29.96,East,81,5.0,8.0,77,0.00,,---,0.00,0.00,VWS V14.01,2013-05-26 03:42:00,
2013-05-25 20:47:00,50.8,44.9,29.96,NE,56,3.0,8.0,80,0.01,,---,0.01,0.00,VWS V14.01,2013-05-26 03:47:00,
2013-05-25 20:52:00,50.3,45.0,29.95,ENE,60,2.0,8.0,82,0.01,,---,0.01,0.00,VWS V14.01,2013-05-26 03:52:00,
2013-05-25 20:57:00,49.9,45.0,29.95,ENE,65,1.0,8.0,83,0.01,,---,0.01,0.00,VWS V14.01,2013-05-26 03:57:00,
2013-05-25 21:01:00,49.6,45.0,29.95,ENE,63,0.0,0.0,84,0.01,,---,0.01,0.00,VWS V14.01,2013-05-26 04:01:00,
2013-05-25 21:06:00,49.3,45.0,29.95,ENE,63,0.0,0.0,85,0.01,,---,0.01,0.00,VWS V14.01,2013-05-26 04:06:00,
2013-05-25 21:11:00,49.0,45.0,29.95,ENE,63,0.0,0.0,86,0.01,,---,0.01,0.00,VWS V14.01,2013-05-26 04:11:00,
2013-05-25 21:16:00,48.7,44.7,29.95,ENE,63,0.0,0.0,86,0.01,,---,0.01,0.00,VWS V14.01,2013-05-26 04:16:00,
2013-05-25 21:21:00,48.3,44.6,29.95,NNE,19,1.0,1.0,87,0.01,,---,0.01,0.00,VWS V14.01,2013-05-26 04:21:00,
2013-05-25 21:26:00,48.1,44.7,29.95,WNW,298,0.0,1.0,88,0.01,,---,0.01,0.00,VWS V14.01,2013-05-26 04:26:00,
2013-05-25 21:31:00,47.9,44.8,29.95,West,281,0.0,0.0,89,0.01,,---,0.01,0.00,VWS V14.01,2013-05-26 04:31:00,
2013-05-25 21:36:00,47.9,43.9,29.95,SW,229,1.0,2.0,86,0.01,,---,0.01,0.00,VWS V14.01,2013-05-26 04:36:00,
2013-05-25 21:41:00,47.9,43.9,29.95,SW,232,1.0,3.0,86,0.01,,---,0.01,0.00,VWS V14.01,2013-05-26 04:41:00,
2013-05-25 21:46:00,48.0,44.0,29.95,SSW,207,1.0,3.0,86,0.01,,---,0.01,0.00,VWS V14.01,2013-05-26 04:46:00,
2013-05-25 21:51:00,48.1,44.4,29.96,SW,219,2.0,3.0,87,0.01,,---,0.01,0.00,VWS V14.01,2013-05-26 04:51:00,
2013-05-25 21:56:00,48.1,43.8,29.96,SW,236,0.0,3.0,85,0.01,,---,0.01,0.00,VWS V14.01,2013-05-26 04:56:00,
2013-05-25 22:01:00,48.2,44.2,29.96,West,261,0.0,3.0,86,0.00,,---,0.01,0.00,VWS V14.01,2013-05-26 05:01:00,
2013-05-25 22:06:00,48.2,44.2,29.96,WSW,246,0.0,3.0,86,0.00,,---,0.01,0.00,VWS V14.01,2013-05-26 05:06:00,
2013-05-25 22:11:00,48.2,44.8,29.96,WSW,244,0.0,3.0,88,0.00,,---,0.01,0.00,VWS V14.01,2013-05-26 05:11:00,
2013-05-25 22:16:00,48.2,44.8,29.96,SW,229,0.0,3.0,88,0.00,,---,0.01,0.00,VWS V14.01,2013-05-26 05:16:00,
2013-05-25 22:21:00,48.1,44.7,29.96,SW,219,0.0,3.0,88,0.00,,---,0.01,0.00,VWS V14.01,2013-05-26 05:21:00,
2013-05-25 22:26:00,48.0,44.6,29.95,SW,219,0.0,3.0,88,0.00,,---,0.01,0.00,VWS V14.01,2013-05-26 05:26:00,
2013-05-25 22:31:00,47.9,44.5,29.95,SW,219,0.0,0.0,88,0.00,,---,0.01,0.00,VWS V14.01,2013-05-26 05:31:00,
2013-05-25 22:36:00,47.8,44.7,29.95,SW,219,0.0,0.0,89,0.00,,---,0.01,0.00,VWS V14.01,2013-05-26 05:36:00,
2013-05-25 22:41:00,47.7,44.6,29.95,SW,219,0.0,0.0,89,0.00,,---,0.01,0.00,VWS V14.01,2013-05-26 05:41:00,
2013-05-25 22:46:00,47.5,44.4,29.95,SW,219,0.0,0.0,89,0.00,,---,0.01,0.00,VWS V14.01,2013-05-26 05:46:00,
2013-05-25 22:51:00,47.0,43.9,29.95,SW,219,0.0,1.0,89,0.00,,---,0.01,0.00,VWS V14.01,2013-05-26 05:51:00,
2013-05-25 22:56:00,46.7,43.9,29.95,SW,219,0.0,2.0,90,0.00,,---,0.01,0.00,VWS V14.01,2013-05-26 05:56:00,
2013-05-25 23:01:00,46.5,43.7,29.95,SW,219,0.0,0.0,90,0.00,,---,0.01,0.00,VWS V14.01,2013-05-26 06:01:00,
2013-05-25 23:06:00,46.5,44.0,29.95,SW,227,0.0,2.0,91,0.00,,---,0.01,0.00,VWS V14.01,2013-05-26 06:06:00,
2013-05-25 23:11:00,46.5,43.7,29.95,SW,227,0.0,2.0,90,0.00,,---,0.01,0.00,VWS V14.01,2013-05-26 06:11:00,
2013-05-25 23:16:00,46.5,43.7,29.95,SW,227,0.0,2.0,90,0.00,,---,0.01,0.00,VWS V14.01,2013-05-26 06:16:00,
2013-05-25 23:21:00,46.3,43.5,29.96,SW,227,0.0,2.0,90,0.00,,---,0.01,0.00,VWS V14.01,2013-05-26 06:21:00,
2013-05-25 23:26:00,46.1,43.3,29.96,SW,227,0.0,2.0,90,0.00,,---,0.01,0.00,VWS V14.01,2013-05-26 06:26:00,
2013-05-25 23:31:00,46.0,43.5,29.96,SW,227,0.0,0.0,91,0.00,,---,0.01,0.00,VWS V14.01,2013-05-26 06:31:00,
2013-05-25 23:36:00,45.9,43.4,29.96,SW,227,0.0,0.0,91,0.00,,---,0.01,0.00,VWS V14.01,2013-05-26 06:36:00,
2013-05-25 23:41:00,45.8,43.3,29.96,SW,227,0.0,0.0,91,0.00,,---,0.01,0.00,VWS V14.01,2013-05-26 06:41:00,
2013-05-25 23:46:00,45.8,43.3,29.96,SW,227,0.0,0.0,91,0.00,,---,0.01,0.00,VWS V14.01,2013-05-26 06:46:00,
2013-05-25 23:51:00,45.8,43.3,29.96,SW,228,0.0,0.0,91,0.00,,---,0.01,0.00,VWS V14.01,2013-05-26 06:51:00,
2013-05-25 23:56:00,45.8,43.6,29.96,WNW,290,0.0,0.0,92,0.00,,---,0.01,0.00,VWS V14.01,2013-05-26 06:56:00,